Theta_e
318 319 319 320 320 320 321 321 321 322 323 323 323 323 323 323 322 323 323 321 322 326 325 324 325 325 323 322 322 320 308 293 292 294 297 297 309 321 323 324 325 325 317 296 297 296 292 292 296 294 292 290 292 292 292 291 291 289 284 279 279 277 280 280 282 282 283 286 285 286 287 288 287 287 292 293 292 289 290 291 292 293 294 296 294 293 295 295
318 319 319 319 320 320 321 321 321 322 323 323 322 323 323 323 321 322 322 321 322 326 325 325 325 325 324 322 321 317 297 292 290 291 295 308 322 325 325 324 325 323 310 294 295 292 292 293 292 290 290 290 291 292 293 292 290 283 280 280 281 277 280 284 282 283 286 287 285 286 285 288 289 290 291 290 287 285 288 291 291 294 296 298 298 295 294 295
317 318 318 318 319 319 320 320 321 322 322 322 322 323 324 322 323 323 322 321 323 323 324 325 324 324 324 323 321 315 304 293 291 292 297 319 324 326 322 322 323 317 297 297 297 296 296 295 294 291 288 291 289 291 289 291 292 284 284 281 279 281 281 283 284 287 285 286 287 286 286 286 287 290 291 290 288 286 288 291 289 290 294 296 297 296 293 293
317 317 318 318 318 319 320 320 321 322 322 322 323 324 323 322 322 324 324 322 321 325 324 324 324 324 324 322 322 303 295 289 288 292 293 316 323 323 322 323 322 307 299 297 297 298 292 290 288 291 290 286 287 287 290 289 289 287 285 282 282 281 285 286 284 285 286 285 286 286 285 285 287 287 290 288 288 290 290 292 292 293 293 294 295 294 292 293
316 317 317 318 318 319 320 321 321 321 322 323 323 323 323 323 321 322 322 324 324 325 325 324 324 324 324 322 319 302 293 284 289 293 297 320 323 319 322 323 316 297 297 298 294 291 290 291 292 287 289 290 286 288 285 289 288 287 286 282 284 282 285 286 285 283 285 285 286 284 285 287 288 289 289 288 287 288 291 292 291 294 295 294 295 294 292 293
316 317 317 318 319 319 320 320 321 322 322 323 323 322 323 323 323 321 322 324 324 325 325 324 324 323 323 319 295 294 292 280 293 295 316 319 319 316 323 321 315 300 299 293 294 290 294 292 289 287 285 286 285 287 288 289 291 288 283 284 282 283 286 286 286 286 284 286 286 285 287 287 286 287 285 287 289 293 297 293 293 292 294 295 293 293 292 293
316 317 317 318 319 319 319 320 321 322 322 322 322 322 323 323 322 323 323 324 325 325 326 324 322 322 321 316 297 295 292 292 294 298 310 317 317 314 319 314 310 297 294 293 293 294 288 290 287 288 287 285 285 286 288 289 288 288 286 284 288 282 286 285 285 284 283 285 286 285 285 286 284 286 285 285 291 294 295 294 293 293 294 292 292 293 294 294
317 317 318 318 318 319 319 320 320 321 321 321 321 323 323 321 323 323 323 324 324 325 325 323 322 320 316 298 300 290 288 293 298 297 309 313 303 301 308 298 297 294 295 293 295 293 290 291 291 289 286 288 288 289 288 288 285 286 285 284 286 284 283 284 284 284 283 284 285 284 286 287 286 285 284 288 292 292 290 290 289 289 288 288 289 291 292 293
317 318 318 318 318 318 318 319 319 320 320 321 321 322 322 321 322 322 323 323 324 324 325 323 322 318 311 294 289 288 290 295 296 298 297 298 297 296 297 300 295 293 292 291 292 294 293 289 292 289 290 287 290 290 287 287 283 286 286 286 284 286 286 286 285 283 282 285 284 285 285 285 284 285 285 290 291 289 288 290 290 288 289 289 289 290 291 292
317 318 318 318 318 318 318 319 319 319 320 320 320 322 323 322 322 322 323 324 324 325 324 324 322 313 300 295 291 290 295 298 296 297 296 295 297 297 295 296 295 295 296 294 295 295 293 291 294 292 290 289 290 288 287 287 287 287 286 286 287 287 284 285 284 284 283 283 283 285 285 284 285 286 285 287 288 288 290 290 290 288 289 289 289 290 289 291
318 318 318 318 318 317 317 318 318 318 319 320 321 323 323 323 322 322 323 323 323 323 325 322 319 307 296 292 290 289 299 300 298 297 296 296 297 296 296 295 296 294 294 294 295 294 296 292 293 292 294 292 289 287 288 289 288 288 287 286 284 283 283 285 284 283 285 287 283 285 286 284 284 285 285 289 290 288 287 288 288 288 288 289 289 289 289 289
318 318 318 318 317 317 318 318 318 319 320 321 322 322 323 321 321 321 322 322 322 323 321 319 313 297 294 293 292 294 300 300 297 296 297 296 296 296 296 296 296 297 297 296 295 295 293 294 294 293 291 293 287 289 288 288 289 287 286 285 283 282 285 285 284 284 283 287 286 284 284 281 283 284 287 288 288 289 286 286 287 288 288 288 288 289 289 289
318 318 317 317 317 317 318 318 318 318 321 322 323 323 322 321 321 321 321 321 319 321 319 318 308 301 298 292 295 300 296 296 297 296 297 295 295 295 296 294 295 296 296 295 296 297 294 294 295 295 292 289 288 286 287 287 285 287 284 282 281 280 282 285 285 285 285 287 285 286 277 281 282 284 285 287 288 287 287 287 288 288 288 288 288 289 290 291
317 317 316 316 317 319 319 319 320 320 321 321 322 320 320 320 320 320 321 320 322 321 322 320 299 295 294 290 295 300 298 297 297 299 295 297 298 295 296 296 294 292 294 294 295 295 296 294 296 294 292 290 288 292 286 282 283 283 282 279 274 276 277 282 283 284 286 286 286 287 278 281 285 288 288 288 286 284 284 286 286 286 287 287 288 288 289 291
316 316 316 317 318 318 317 319 320 320 321 321 320 319 319 319 320 320 321 320 319 319 320 311 301 302 291 294 297 298 312 297 298 297 294 297 294 296 296 296 295 293 294 294 296 297 295 294 292 289 288 288 286 284 278 278 278 278 278 273 277 275 280 284 283 284 284 285 284 285 274 278 285 288 289 289 286 284 283 284 284 285 286 286 287 288 289 290
316 316 316 317 317 317 318 318 318 319 321 319 319 319 319 319 319 320 321 318 320 319 305 303 299 292 288 290 297 305 294 294 297 296 294 295 295 295 295 293 293 295 295 295 296 296 296 296 290 288 288 287 287 276 276 276 275 277 280 271 275 274 278 280 281 282 284 283 283 284 281 282 284 287 290 288 285 284 281 282 283 284 285 286 286 287 287 289
316 315 316 316 316 318 319 318 318 319 319 318 318 318 317 318 317 318 318 313 306 308 301 300 295 296 292 295 298 295 291 294 294 296 296 295 295 294 294 294 292 296 295 296 295 293 293 290 287 285 284 285 283 279 270 271 273 275 276 276 276 275 279 277 282 282 284 283 283 282 281 280 285 287 287 287 283 283 282 282 283 284 284 285 285 286 287 288
315 315 316 316 317 318 319 319 318 318 318 317 317 317 311 316 314 312 307 305 301 300 299 298 294 294 291 294 291 293 294 290 295 295 293 296 294 294 295 295 291 292 289 292 292 292 290 286 284 283 282 284 283 283 277 271 273 275 277 276 277 277 278 278 277 281 283 283 282 279 280 281 284 285 285 285 283 282 282 282 282 283 283 285 285 286 287 288
316 316 316 317 318 318 318 318 318 318 317 317 318 319 315 313 299 297 299 298 298 292 288 292 291 285 284 292 291 292 294 295 294 295 297 298 295 293 294 292 291 291 289 286 288 288 287 283 284 281 281 281 282 279 278 279 279 279 279 275 276 275 277 278 280 280 281 281 282 279 280 282 283 284 285 285 283 281 282 281 282 283 283 284 285 286 286 287
317 317 316 318 317 318 317 318 318 317 316 309 299 304 297 297 289 292 296 297 292 292 292 292 291 291 291 290 293 296 296 293 292 295 297 297 295 293 291 291 291 292 285 284 285 285 284 282 278 276 280 281 280 281 281 280 281 281 279 278 278 276 277 279 279 280 280 281 277 278 278 279 282 283 284 283 282 282 282 283 282 283 283 284 285 285 286 287
316 315 315 316 317 317 318 317 318 317 313 298 298 297 294 291 288 289 289 291 290 290 293 292 292 293 293 291 291 294 291 291 290 293 295 297 292 292 291 288 287 287 283 282 284 286 283 282 280 280 281 281 281 280 279 280 280 280 279 276 276 275 275 281 281 280 281 281 277 276 280 282 282 282 283 283 282 284 283 283 283 283 282 282 283 285 286 284
316 315 315 315 317 317 317 317 317 316 310 298 297 295 293 293 296 295 290 289 292 292 291 291 291 291 291 290 292 291 289 288 291 294 297 298 295 289 289 287 285 284 283 280 280 279 281 280 283 282 281 280 278 278 278 281 279 276 278 274 272 275 277 280 279 280 282 281 277 276 279 282 282 282 282 281 281 282 281 283 283 282 283 284 285 285 286 286
316 315 314 316 317 318 318 318 316 312 297 296 294 292 296 298 296 293 293 288 288 291 292 290 291 289 291 293 293 293 288 288 285 291 293 294 290 291 285 284 283 281 285 281 279 277 278 279 283 280 279 282 281 278 279 277 277 277 275 275 275 276 276 275 279 279 282 278 276 278 277 280 278 276 278 279 280 280 281 282 281 282 283 283 284 284 284 285
315 314 315 316 317 317 317 317 311 301 296 293 295 296 296 294 296 299 291 287 287 290 293 293 291 289 290 292 294 292 288 288 286 289 294 291 288 287 285 282 280 281 282 280 281 281 280 284 282 278 278 280 281 278 280 278 277 276 276 275 275 277 278 277 279 280 279 278 279 279 275 273 276 275 279 280 279 281 282 283 282 282 283 283 284 284 284 284
315 315 315 316 316 317 315 312 301 297 294 294 296 298 295 294 295 295 292 287 284 287 292 291 288 292 293 295 292 295 291 288 289 289 290 291 290 286 286 285 280 281 282 280 279 280 280 283 282 279 278 277 278 278 279 279 277 275 273 277 279 278 278 277 278 277 275 272 277 277 270 269 272 275 275 277 280 282 282 281 282 282 282 283 283 283 284 284
313 314 315 316 316 315 316 301 297 296 298 297 298 298 295 293 296 294 286 276 275 285 290 287 296 291 294 291 291 287 289 286 291 291 293 291 292 289 283 282 284 283 281 280 283 281 283 281 280 281 278 277 278 278 280 279 276 272 280 276 279 277 276 276 276 275 270 270 274 277 271 268 275 276 276 276 278 279 281 280 280 281 281 282 282 282 283 283
313 313 315 316 315 316 301 295 295 297 298 299 298 295 294 297 295 301 295 272 270 284 284 291 292 291 296 290 287 288 280 283 290 288 290 291 290 292 286 281 280 282 282 280 275 279 282 281 281 279 278 278 278 279 278 279 274 276 277 278 278 276 276 276 273 272 274 275 277 276 273 270 269 277 276 277 277 277 278 279 279 280 280 281 282 282 282 283
312 314 315 315 313 310 302 298 298 298 297 298 295 295 296 296 297 293 278 267 270 288 285 287 293 293 292 289 289 286 286 285 283 287 289 289 288 286 285 282 279 280 281 276 272 279 280 282 281 281 277 279 278 280 280 280 279 279 280 279 278 277 277 276 274 273 273 271 270 273 275 271 264 273 275 277 275 275 276 277 278 279 280 280 281 282 282 283
314 315 315 315 313 309 297 296 296 297 298 295 294 296 297 292 294 289 274 269 281 284 296 288 298 290 286 288 285 282 285 285 284 287 289 287 292 287 281 282 279 280 281 282 279 277 282 283 282 282 279 280 281 280 280 280 279 279 279 278 275 276 275 274 271 273 267 268 265 270 275 268 271 274 274 276 274 273 274 276 277 278 279 280 280 281 282 283
315 315 315 312 303 302 295 294 297 295 292 295 296 296 293 294 288 280 271 268 284 278 287 288 287 284 281 281 280 283 285 283 283 285 285 283 289 287 283 283 280 277 279 277 279 280 282 284 284 284 282 283 282 281 280 279 282 281 278 278 276 273 273 272 269 266 264 259 265 270 273 273 266 271 271 272 270 271 273 275 277 278 279 280 280 281 282 282
315 314 312 310 298 297 296 293 298 293 294 296 297 293 292 284 273 266 264 273 286 284 283 283 282 282 279 280 279 282 282 280 283 281 282 284 285 285 283 280 280 276 276 277 273 279 283 281 284 284 284 283 282 279 279 279 279 279 278 276 276 273 271 266 267 264 262 264 268 268 273 272 263 268 273 273 273 273 274 274 276 277 278 279 280 281 281 281
312 310 311 301 299 295 296 293 298 293 293 292 292 289 289 278 276 274 274 285 279 279 279 279 280 279 279 279 278 280 279 279 280 280 278 278 279 281 279 276 274 270 272 274 276 277 280 281 280 281 284 283 279 278 278 277 278 281 278 277 273 266 266 264 266 266 262 263 272 268 269 270 271 269 273 275 275 275 275 276 277 277 278 278 279 280 281 281
310 309 308 301 296 293 294 294 289 293 294 293 289 284 276 272 268 269 270 274 278 281 280 282 280 279 277 277 278 278 279 280 280 280 281 278 277 277 278 280 278 274 272 274 273 274 274 275 279 279 280 282 280 278 276 276 278 278 277 270 267 263 258 258 259 258 259 269 269 271 269 270 272 272 274 274 276 277 277 277 277 278 277 278 279 280 280 281
310 305 298 299 299 295 294 292 290 295 293 291 286 282 278 275 269 284 273 274 280 278 281 278 279 277 277 280 278 277 277 279 279 280 279 277 277 275 277 280 280 278 273 273 274 271 271 270 276 279 277 280 280 280 280 278 277 276 275 277 268 266 263 261 256 263 268 269 273 271 267 262 265 270 276 276 277 278 278 277 277 278 278 278 279 279 280 281
306 299 296 291 292 293 293 291 292 294 289 289 283 274 273 267 265 270 271 274 277 279 282 279 277 275 277 274 276 278 280 276 279 276 278 277 277 274 276 277 279 278 274 272 268 269 274 273 278 279 280 280 281 281 279 279 277 277 276 274 271 270 269 265 264 263 262 264 267 262 268 265 271 275 278 277 277 277 277 277 278 277 279 278 279 279 280 280
303 294 293 291 294 292 293 293 292 289 291 287 283 276 272 269 272 276 278 281 279 280 278 278 275 273 270 274 272 275 278 277 277 274 274 275 277 277 278 277 278 278 275 271 269 269 270 274 276 279 281 282 282 280 280 280 271 276 275 269 274 275 275 264 269 269 267 264 266 260 268 273 273 275 274 276 275 276 276 277 277 277 278 278 278 279 280 280
292 292 296 292 292 293 293 289 291 291 291 285 281 273 272 277 279 277 283 281 280 280 274 273 273 274 271 272 271 273 277 277 274 274 275 277 277 278 277 278 280 278 279 274 269 272 270 274 277 275 278 279 278 279 280 277 279 273 268 275 276 276 272 268 264 261 261 259 265 264 269 271 267 266 274 275 274 275 275 276 277 277 277 277 278 279 280 280
292 291 290 292 293 292 292 292 289 290 286 286 278 283 277 280 281 281 280 279 280 278 273 274 275 277 270 271 276 272 278 275 279 273 275 275 276 280 277 278 279 279 278 276 275 273 273 267 274 276 276 278 276 280 276 279 279 281 278 276 276 264 268 265 260 261 261 261 263 265 269 271 268 270 272 272 273 273 275 276 276 276 277 278 279 279 280 280
287 287 287 292 294 292 292 289 291 289 287 281 268 280 281 278 279 280 281 281 279 277 275 275 274 275 275 270 272 269 270 274 272 276 272 276 273 279 278 278 280 278 278 279 276 277 275 267 273 275 278 278 275 275 270 272 274 278 278 279 275 273 267 265 267 261 261 264 260 263 263 269 267 269 272 272 274 274 274 275 276 277 277 278 278 278 279 279
296 287 285 291 294 290 289 292 292 287 283 278 272 274 280 282 282 280 279 281 281 276 276 276 277 272 273 275 273 274 272 273 275 273 276 277 278 279 278 279 278 279 278 278 279 279 275 274 265 273 275 274 274 274 274 275 270 272 271 267 270 265 270 270 265 265 267 260 258 262 263 268 273 275 274 272 274 275 275 275 276 276 277 278 278 278 278 279
284 285 286 291 294 291 292 293 285 278 276 277 277 279 279 282 281 281 279 278 282 282 277 277 276 276 277 272 273 277 274 273 274 274 276 274 276 272 277 278 278 279 278 278 276 277 268 270 268 272 274 272 275 274 276 277 278 275 273 269 270 266 269 263 267 262 259 262 264 260 264 272 276 278 276 275 276 276 276 276 275 276 276 277 277 278 278 278
283 278 287 295 293 291 292 285 275 276 277 274 277 281 284 290 280 280 279 279 280 281 279 277 277 277 276 279 278 275 277 272 275 272 274 275 279 278 277 272 278 278 277 277 277 278 277 271 269 269 272 276 278 277 276 277 277 275 275 272 269 265 263 264 263 266 264 267 264 266 265 269 277 277 277 277 276 277 277 276 275 276 276 277 277 277 277 278
282 286 293 294 291 291 289 276 277 278 275 281 281 281 279 279 278 280 281 281 282 280 280 280 281 278 278 281 279 278 277 271 275 277 277 276 275 277 275 276 277 279 278 274 277 278 283 266 265 273 273 273 275 273 275 273 278 274 274 273 272 268 266 265 267 267 264 266 266 267 264 270 276 276 277 278 278 278 277 276 275 275 275 276 276 276 276 277
283 287 290 294 290 289 285 276 274 274 276 282 279 281 279 282 281 280 280 279 279 278 280 280 280 281 281 279 278 280 280 272 277 277 277 274 278 276 276 278 277 280 277 277 274 278 269 270 269 265 267 273 275 275 275 275 274 272 269 271 269 268 266 264 262 259 262 264 267 265 262 267 277 279 279 280 278 276 276 276 276 274 275 275 275 276 276 276
283 282 284 288 293 289 280 276 281 276 275 276 275 276 277 282 281 283 282 281 280 277 276 279 281 281 280 279 278 278 278 277 275 275 273 271 275 276 274 273 272 278 279 281 283 280 273 271 266 263 263 264 264 265 268 272 274 273 272 270 269 266 266 266 261 263 263 269 269 266 265 273 277 278 277 278 276 275 275 275 275 275 274 274 275 275 276 276
281 282 280 286 286 285 281 279 279 278 273 269 275 276 276 278 282 278 280 283 281 281 279 281 279 279 277 278 278 277 278 278 276 272 271 276 271 274 275 276 275 277 281 281 278 274 267 271 269 266 269 266 271 273 277 277 275 271 269 268 266 265 262 264 266 265 265 267 266 268 270 270 271 273 274 275 274 272 272 273 273 273 274 275 275 275 275 276
282 282 274 279 279 283 277 279 278 276 275 276 275 276 274 276 277 280 280 282 282 281 281 279 279 279 278 277 276 276 277 277 274 273 272 271 269 271 271 276 276 280 282 279 275 265 264 267 269 271 269 274 275 275 277 276 273 273 266 267 267 266 264 263 266 265 271 268 264 271 271 268 269 271 273 273 272 272 273 273 273 273 274 274 274 275 277 275
280 279 281 284 283 278 274 279 278 279 278 277 274 277 275 276 277 275 280 283 281 279 283 279 277 278 278 279 279 272 277 274 271 273 269 268 268 272 275 275 277 279 279 276 270 270 266 268 268 267 267 271 274 275 276 274 273 271 269 269 267 267 265 264 265 270 271 267 265 269 271 268 269 272 273 272 272 272 272 272 273 274 274 274 274 274 274 274
281 281 280 282 279 276 277 280 279 280 280 277 278 278 274 275 277 280 279 280 278 280 279 275 278 277 278 276 278 274 274 271 271 268 269 270 269 272 269 272 278 275 275 273 271 261 268 263 263 264 270 272 274 274 274 273 271 269 266 271 271 269 268 268 270 272 271 269 271 270 270 269 271 272 272 272 273 272 273 274 274 273 273 273 274 273 274 274
283 280 280 279 278 275 273 272 277 280 280 279 275 279 277 278 279 280 278 279 275 279 279 279 278 278 278 277 277 273 276 276 275 273 270 271 274 269 269 271 271 272 273 272 270 272 271 269 273 263 268 273 273 271 270 272 268 268 271 270 271 271 271 271 271 272 272 270 271 269 268 267 272 273 272 273 273 273 273 272 272 273 273 273 273 273 274 275
281 279 285 284 277 276 276 272 275 277 273 278 275 279 281 278 280 279 281 280 281 280 280 280 279 278 276 277 277 277 278 278 277 278 277 275 273 274 272 272 277 273 270 270 267 270 270 270 263 261 269 271 273 273 274 270 269 266 268 270 271 270 268 270 269 271 269 267 268 267 265 266 270 272 272 272 272 272 271 271 272 272 273 273 273 273 274 275
279 280 280 282 277 278 276 271 275 275 275 278 280 280 280 281 279 280 281 280 278 279 281 281 279 280 275 275 275 279 279 278 279 279 279 277 278 278 277 277 276 274 270 268 265 265 262 265 269 263 269 268 274 273 273 272 265 262 263 269 271 272 272 272 273 272 271 271 266 263 264 270 270 272 270 270 271 271 271 272 272 273 273 273 273 274 275 275
Wind_Speed
11 11 11 11 11 11 11 12 12 12 12 11 11 12 12 11 12 11 11 11 11 10 10 10 9 8 7 7 7 9 7 5 6 6 8 3 6 7 8 10 10 6 2 2 7 9 5 6 8 11 5 3 2 1 1 3 1 2 1 2 2 4 1 5 4 7 2 2 4 3 1 1 7 2 1 0 1 2 4 6 4 5 8 7 4 1 2 3
10 10 11 11 11 11 11 11 12 11 11 11 11 11 11 11 11 11 10 11 10 10 9 9 9 8 7 6 6 6 6 3 3 6 3 5 4 6 10 9 7 2 1 4 5 4 4 6 4 6 3 1 1 0 1 0 1 2 2 2 6 4 5 4 2 3 1 7 4 4 2 4 7 0 2 2 4 3 6 6 2 7 11 10 10 6 1 4
9 10 10 10 10 10 11 11 11 11 11 11 11 11 11 11 11 10 10 10 11 10 9 8 8 8 7 6 6 4 0 2 5 6 5 5 6 9 12 9 2 2 1 0 1 2 1 1 1 1 3 1 7 0 3 1 1 1 2 3 5 5 4 5 4 5 6 3 8 6 2 2 3 0 1 2 7 5 8 11 3 4 11 11 11 5 4 4
8 9 9 9 10 10 10 10 10 10 11 11 11 11 11 10 11 10 10 10 11 10 9 9 9 8 7 6 7 1 4 4 3 4 5 7 10 11 12 9 5 4 4 5 3 1 3 4 4 3 1 4 3 1 1 2 2 1 2 2 1 2 2 2 4 7 6 2 4 3 2 4 4 4 0 1 6 10 9 9 10 11 11 11 8 4 4 5
8 8 9 9 9 10 10 10 11 11 11 11 11 11 10 10 11 10 10 10 10 10 9 9 9 8 6 6 6 1 3 3 2 2 7 9 9 11 10 6 5 3 3 5 4 4 5 3 1 4 3 0 3 1 1 1 1 2 4 1 2 1 1 8 4 5 2 3 2 3 5 5 1 0 1 2 5 11 7 3 3 9 10 8 10 5 3 5
8 8 9 9 9 10 10 11 11 11 11 11 11 11 11 10 10 10 10 10 10 9 9 9 8 6 5 4 2 3 3 2 1 4 7 10 10 9 6 5 5 3 1 4 1 1 2 5 4 2 3 3 2 2 2 0 1 2 3 1 3 3 2 2 2 2 1 3 3 5 2 3 2 4 2 3 10 10 12 3 6 5 7 7 4 4 4 6
8 8 9 9 10 10 11 11 11 11 11 11 11 11 11 11 10 10 10 9 9 9 8 8 7 6 5 2 2 11 7 0 1 7 9 10 8 7 2 5 4 2 4 4 6 2 2 4 5 0 1 3 1 0 0 1 3 2 3 1 3 4 5 2 5 5 5 3 6 1 4 4 4 8 1 3 11 13 12 11 10 10 8 5 6 6 7 8
8 9 9 9 10 11 11 11 11 11 11 11 11 11 11 11 10 9 9 9 8 8 8 8 6 5 5 1 1 4 5 2 6 4 9 10 9 8 2 0 6 3 9 4 1 2 1 5 3 1 3 1 1 1 1 1 2 3 2 0 3 1 4 6 6 8 6 6 5 4 4 8 1 3 4 10 14 8 7 6 7 6 6 5 4 9 9 8
8 9 9 10 10 10 10 11 10 11 11 11 12 11 11 10 10 9 8 7 7 7 7 7 6 2 4 5 3 4 3 3 6 5 7 8 8 8 7 4 6 4 3 2 3 2 3 1 1 3 1 1 1 1 2 1 3 1 2 1 3 3 6 5 8 5 5 4 1 5 5 7 6 3 4 13 10 6 7 9 8 8 9 8 6 7 7 8
8 9 9 10 10 10 10 10 11 11 11 11 11 11 10 9 8 8 6 5 5 6 7 5 6 2 5 3 4 9 3 4 4 3 6 6 8 8 8 1 1 3 4 6 5 7 3 3 2 4 5 3 1 0 0 1 2 2 3 2 5 6 5 4 5 6 7 2 3 3 7 6 2 2 6 2 2 7 13 12 10 8 10 9 8 7 5 6
9 9 9 9 9 10 10 11 11 12 11 11 11 10 9 8 8 7 6 6 5 6 5 4 5 3 3 3 7 5 2 4 0 5 6 8 10 8 3 4 1 3 4 3 4 1 0 3 3 3 0 0 2 1 0 0 1 2 2 4 2 9 1 6 4 6 7 2 4 1 9 2 3 1 4 7 10 8 11 14 12 9 8 8 9 8 7 5
9 9 9 9 10 10 10 11 11 11 11 11 10 9 7 8 8 7 6 6 5 4 3 2 4 4 4 6 7 2 1 4 4 4 3 5 6 4 5 2 1 2 2 1 1 0 3 3 4 1 1 1 2 0 1 0 1 1 5 5 7 9 2 10 6 6 4 3 8 3 6 2 1 1 3 9 8 11 8 8 10 10 9 7 6 7 7 6
9 9 9 9 10 10 11 11 11 11 10 10 9 8 8 8 8 7 6 6 2 3 2 2 4 4 2 4 0 4 2 3 4 5 4 2 3 2 0 2 3 1 2 2 0 0 2 4 4 8 0 2 0 2 1 3 3 1 5 1 7 9 2 8 5 8 4 3 7 6 6 10 6 7 5 6 11 13 10 11 10 8 7 7 6 6 6 8
9 9 9 9 10 10 10 10 10 10 9 9 9 9 8 8 7 7 6 6 4 2 2 3 3 3 2 0 6 3 4 1 2 8 7 7 8 3 3 4 3 3 1 4 2 1 4 2 11 6 3 6 1 2 2 5 6 4 4 5 3 7 6 7 5 9 7 3 10 4 2 9 9 13 5 5 7 8 7 7 7 6 6 6 5 6 6 7
8 8 9 9 10 10 10 10 10 10 9 9 9 9 8 8 7 7 6 3 3 1 4 3 3 1 3 0 4 8 2 1 9 8 5 10 6 4 5 5 3 5 0 3 3 2 3 4 7 8 3 1 2 1 4 3 6 4 6 7 4 6 10 13 4 6 8 5 7 5 0 6 12 12 9 8 8 7 6 6 6 6 6 6 6 7 8 8
8 8 9 9 10 10 10 10 10 9 8 10 10 9 7 6 7 5 2 2 1 4 2 0 5 5 5 3 1 4 5 5 9 6 3 4 2 2 4 4 2 5 3 4 3 3 6 10 10 1 3 4 12 4 5 6 6 6 5 3 7 2 6 11 0 2 4 4 3 6 5 6 7 7 12 9 7 6 5 6 6 6 6 6 6 5 5 8
8 8 9 9 10 9 9 10 10 9 9 10 10 7 2 7 8 3 7 6 4 1 1 1 0 1 5 4 2 5 3 3 3 4 7 1 1 1 3 3 3 2 3 3 7 3 8 8 3 3 5 8 3 2 2 7 6 5 3 1 2 3 9 6 10 2 6 5 8 3 1 6 9 12 12 9 5 7 5 6 6 6 5 5 5 7 8 8
8 8 8 9 10 9 9 8 9 9 10 11 5 4 4 6 8 2 6 6 2 5 3 1 2 2 1 6 4 7 4 5 6 6 5 2 3 5 6 5 2 2 5 3 7 8 5 3 5 3 2 7 9 10 10 1 2 4 6 6 7 3 4 8 4 6 14 4 3 4 2 8 12 10 9 7 4 5 5 5 6 5 5 6 7 8 8 9
7 8 8 8 9 8 9 9 9 10 11 10 1 4 1 5 3 5 7 6 4 5 6 7 8 4 1 7 7 7 5 5 3 6 13 9 3 3 3 3 5 3 1 6 3 7 7 4 5 7 12 11 9 4 4 2 1 5 3 3 3 5 7 9 7 3 6 11 11 4 5 12 15 15 11 9 6 5 5 5 5 5 6 7 8 8 8 8
7 7 8 8 8 8 9 9 9 8 9 6 3 1 3 2 5 3 8 7 8 4 3 2 1 2 3 5 7 9 5 5 7 14 13 4 4 6 8 4 5 9 6 3 6 3 0 10 8 2 6 6 4 1 3 3 1 1 1 1 6 5 9 6 5 4 3 6 3 3 6 6 11 12 10 8 8 5 5 6 7 6 6 7 8 9 9 10
7 7 8 8 9 8 8 9 8 7 5 3 2 4 0 2 1 2 1 1 1 1 2 1 1 0 1 3 4 9 7 5 4 11 9 4 3 4 7 5 7 9 4 2 1 4 5 11 8 3 4 4 4 2 0 1 1 1 0 1 7 2 7 10 4 2 4 6 6 3 9 15 9 8 10 6 4 4 5 7 6 7 7 7 8 10 11 7
7 8 9 9 9 8 9 9 8 7 5 4 6 4 1 1 0 1 2 3 2 0 1 2 1 2 3 2 2 2 3 1 11 17 11 10 8 6 5 9 6 7 4 3 2 9 9 8 5 4 2 1 2 3 2 1 1 2 0 2 3 5 6 11 1 1 0 3 8 4 7 14 11 10 9 4 4 4 3 1 4 5 8 9 11 14 15 16
8 9 9 9 9 9 9 9 8 6 2 3 3 3 2 0 2 1 2 4 3 1 2 3 7 6 5 2 0 2 5 12 3 10 12 8 5 7 1 6 6 3 6 7 6 3 7 5 4 1 1 1 1 4 4 5 2 1 3 6 7 5 8 10 2 4 5 1 3 6 7 11 8 5 6 5 1 5 5 5 7 6 12 14 14 14 16 18
8 9 9 9 9 8 8 8 6 5 5 3 4 2 1 1 1 1 2 1 1 2 2 0 1 1 3 4 3 4 3 2 2 15 9 5 4 2 5 2 4 4 3 4 6 9 4 0 0 2 6 5 1 3 7 7 7 2 2 2 4 6 3 4 8 9 9 1 0 9 3 5 2 6 9 7 4 8 14 18 20 17 15 12 15 18 17 17
8 8 8 9 8 8 8 6 6 1 2 1 2 0 1 1 0 1 1 1 4 2 4 0 4 1 3 1 4 0 0 1 2 3 2 5 6 3 1 1 1 1 1 1 2 7 2 1 1 3 6 6 4 5 4 4 7 7 5 2 4 5 6 6 7 9 8 4 1 5 5 4 4 6 4 7 9 17 16 21 19 17 17 17 17 15 15 15
7 8 9 8 8 8 8 3 1 0 1 1 0 0 2 1 1 1 7 4 2 4 5 6 0 3 2 4 6 1 0 3 1 2 1 2 4 2 0 3 2 3 1 1 1 2 1 2 4 1 3 5 5 3 1 2 4 3 7 3 2 4 4 4 7 4 5 5 4 3 4 7 6 6 4 7 9 17 17 18 16 16 15 14 14 13 14 14
6 6 6 7 7 7 3 0 0 1 2 1 1 2 2 1 1 1 1 5 5 2 3 3 2 1 2 2 4 1 4 5 5 2 6 5 4 1 3 4 3 1 2 0 3 1 1 3 6 4 5 5 7 9 1 1 2 4 1 1 5 4 5 2 1 1 3 2 4 4 4 2 7 6 4 7 10 14 17 16 15 13 13 13 12 13 13 13
5 5 5 5 7 5 1 3 1 1 0 0 1 2 1 0 1 2 5 3 2 3 3 5 1 3 6 7 10 7 3 6 4 5 4 7 1 4 8 1 3 2 2 2 2 2 2 5 4 5 3 5 6 3 4 1 0 4 5 4 8 3 3 2 1 0 1 1 5 5 2 1 4 5 3 11 12 13 13 13 12 12 12 11 12 12 12 12
4 4 4 3 4 7 5 2 2 1 0 0 1 1 1 2 5 5 4 3 2 1 3 1 1 3 10 7 7 3 2 5 3 4 9 3 8 2 5 1 3 2 0 3 2 1 1 1 1 1 3 7 5 4 1 5 3 4 5 3 3 3 4 2 0 1 3 2 6 3 2 0 9 5 9 7 6 11 8 8 9 9 10 11 11 11 12 11
4 3 4 4 3 2 3 3 4 1 1 1 3 2 1 2 3 2 3 2 1 2 1 3 4 6 5 5 2 9 8 4 2 7 5 4 11 8 3 1 1 2 1 5 6 1 1 3 4 2 1 1 3 4 1 3 4 7 3 5 3 4 3 2 6 2 2 3 7 3 2 2 6 2 5 6 4 3 4 3 4 6 9 11 10 10 11 12
2 3 4 3 2 1 0 2 2 1 0 2 1 3 2 9 3 5 2 2 1 3 2 4 2 5 7 8 6 6 2 2 8 5 5 4 13 7 6 2 5 4 5 6 4 8 1 1 0 0 0 2 1 5 1 1 3 3 5 5 8 2 6 3 5 3 3 7 7 5 2 0 2 4 2 1 1 2 1 5 9 10 10 10 10 11 11 12
4 6 6 7 1 0 1 1 1 0 2 2 3 5 3 2 8 6 2 5 0 3 3 4 2 1 5 1 3 6 4 6 3 6 6 4 6 14 10 6 4 5 7 7 8 6 2 2 2 4 1 4 3 4 6 3 6 10 6 9 11 7 8 7 6 8 1 4 6 1 1 4 8 2 5 3 2 1 1 2 6 7 9 9 10 10 10 11
8 8 11 8 1 4 1 0 0 1 2 1 4 3 4 7 2 2 2 4 1 2 2 2 3 5 5 1 5 4 2 5 5 3 1 1 5 3 3 7 2 1 3 3 3 8 7 3 5 5 2 1 2 9 8 8 7 8 7 4 7 8 5 5 6 3 5 7 4 0 1 5 2 2 3 4 3 1 1 3 3 6 7 9 13 10 13 13
4 2 7 2 7 2 0 0 0 1 1 4 2 5 9 9 1 1 1 1 1 2 2 2 5 3 4 5 3 3 5 1 5 4 4 2 6 7 7 7 9 8 4 2 7 3 9 8 5 6 2 2 3 2 2 4 3 2 3 2 3 3 0 5 2 8 12 12 11 1 4 5 5 1 7 5 3 1 1 2 4 5 6 5 10 8 12 15
9 9 6 1 2 4 3 1 0 1 4 6 12 7 8 1 1 1 1 3 2 2 0 1 2 2 2 3 4 2 1 2 2 2 8 6 5 2 5 7 7 2 0 3 1 0 1 5 9 1 5 2 3 1 1 1 1 1 2 4 6 5 4 3 7 5 6 8 9 4 4 2 0 2 5 3 2 1 2 4 4 5 12 10 13 14 14 16
3 2 3 3 3 5 4 2 1 3 6 8 11 9 5 1 1 1 0 1 1 1 7 3 4 6 3 4 1 4 7 1 4 2 3 4 1 2 1 1 3 3 4 3 1 3 4 4 3 8 2 0 0 0 1 1 4 4 3 3 4 4 6 1 5 1 1 1 8 2 8 1 2 1 0 0 2 5 4 10 10 11 16 15 15 14 14 16
2 4 7 4 5 6 4 2 2 5 10 10 11 4 1 0 1 1 2 0 1 0 2 2 5 4 4 4 3 8 5 2 2 3 3 0 1 2 1 1 1 2 1 2 1 2 0 10 6 4 7 1 1 0 1 1 1 1 4 5 2 3 3 3 4 4 2 4 8 3 12 11 1 7 0 7 12 14 13 15 16 17 23 21 20 18 19 19
1 2 1 4 5 5 2 1 4 8 6 11 9 6 1 1 0 1 0 0 0 1 4 3 0 5 1 1 6 5 8 5 10 4 0 2 1 1 2 0 1 2 3 2 2 2 2 4 6 1 3 9 2 0 2 1 0 0 1 1 4 4 8 3 2 6 8 7 8 7 12 14 5 8 8 12 13 15 16 16 17 18 19 17 16 19 21 20
3 3 3 4 7 5 1 2 10 9 8 14 1 6 1 1 1 0 1 2 0 1 3 1 0 1 1 1 2 1 3 4 3 2 3 2 3 1 1 1 1 2 3 0 1 1 1 1 8 2 2 6 3 4 6 6 4 1 2 1 1 2 5 4 3 2 3 9 6 9 2 15 2 3 1 5 5 8 13 13 14 12 14 12 16 18 17 19
1 3 3 1 8 4 2 3 9 11 11 9 2 2 1 0 1 1 0 1 1 2 1 1 0 1 2 0 1 2 2 1 0 2 2 1 1 2 2 2 0 5 3 1 2 0 1 1 2 6 6 4 6 2 3 3 4 6 7 4 6 2 3 3 1 1 4 5 4 9 13 10 2 2 2 3 4 6 8 10 11 13 14 15 16 16 17 17
1 4 1 3 11 4 4 16 15 10 8 0 1 3 0 0 0 0 2 1 0 1 1 1 2 1 1 2 2 0 1 1 0 1 0 1 1 2 1 1 1 4 2 1 4 2 1 1 3 7 9 4 6 3 1 0 1 2 2 2 3 5 7 7 11 2 2 2 9 7 13 14 2 3 4 3 5 8 9 11 16 17 17 15 16 18 16 16
2 3 4 7 10 4 8 13 5 1 6 4 2 0 1 1 1 2 1 0 1 0 1 4 0 2 1 0 1 1 0 1 1 1 1 1 0 3 2 3 3 0 1 1 0 1 1 1 1 6 4 8 8 5 1 1 6 8 7 4 1 3 2 1 8 7 5 4 2 7 10 12 3 3 4 2 5 8 12 16 19 19 19 16 17 16 16 18
5 2 1 7 6 4 15 8 3 6 4 1 2 1 0 1 1 1 1 2 0 1 1 2 1 0 1 0 0 0 1 1 1 1 0 1 1 1 2 3 3 3 0 1 0 1 3 1 4 7 5 7 10 2 4 4 8 3 7 6 5 4 1 5 7 3 4 6 4 4 7 13 1 6 5 6 6 10 14 16 20 16 18 20 19 21 22 19
3 3 4 3 5 6 10 5 3 2 3 0 2 0 2 0 1 3 1 1 1 2 1 0 2 1 0 0 1 1 0 1 1 1 2 0 1 2 2 2 4 2 2 0 1 4 2 2 2 6 8 11 10 4 2 1 3 2 4 3 2 1 2 4 1 1 2 2 4 9 13 15 4 9 17 19 10 15 18 19 16 19 19 15 18 20 18 20
4 1 2 7 12 11 5 3 9 7 1 2 1 4 3 1 1 0 0 1 0 1 0 1 0 1 0 0 0 0 1 1 2 1 0 1 0 1 3 3 5 1 3 3 3 3 0 2 2 4 6 10 12 14 14 15 11 2 6 3 4 9 8 8 4 4 2 8 15 8 13 14 17 18 20 18 12 15 19 20 20 17 18 18 18 17 19 19
2 4 7 8 10 8 7 2 6 8 7 3 4 1 0 1 1 1 3 1 1 0 0 1 1 1 2 1 2 1 1 2 1 2 2 1 1 2 0 3 3 3 2 1 4 1 0 0 2 2 2 7 9 8 11 5 8 7 7 5 6 2 3 3 1 2 6 12 11 11 12 23 24 23 24 20 13 19 22 20 21 20 18 20 20 19 18 18
2 6 1 1 4 9 4 6 4 3 3 2 3 0 4 1 2 2 2 0 0 0 1 3 1 2 2 3 2 1 1 2 2 1 2 1 2 2 4 1 0 3 3 1 1 2 2 1 2 2 5 7 8 10 14 5 7 4 6 5 1 1 2 1 4 7 9 11 14 11 20 22 24 27 22 15 18 20 18 22 21 19 19 21 19 19 23 19
5 1 2 1 4 1 5 5 4 6 3 3 1 0 1 1 3 0 2 1 0 0 0 0 6 3 0 1 0 3 9 5 1 3 4 1 2 4 2 2 2 3 2 0 1 1 1 0 3 5 9 6 11 12 11 4 1 2 0 2 5 3 4 8 3 8 9 7 15 24 23 23 24 22 15 18 20 18 19 23 19 20 21 18 19 22 21 22
5 3 2 1 3 1 1 1 2 5 9 4 2 2 1 2 2 1 0 4 2 2 3 1 5 4 2 0 1 1 1 5 6 2 2 4 5 4 3 1 1 2 1 1 2 1 1 2 4 3 6 8 11 9 6 2 2 1 2 3 5 3 5 3 7 9 10 14 19 20 23 26 22 15 18 17 16 18 22 19 18 23 22 21 23 23 22 22
2 3 1 6 8 4 1 2 1 4 7 3 3 2 1 0 0 1 0 0 2 2 1 2 4 5 1 1 0 2 1 2 2 3 3 4 6 1 1 1 2 3 4 0 1 1 4 6 3 1 5 10 5 1 0 4 5 2 1 3 7 6 5 6 7 10 13 15 17 22 25 23 13 13 18 17 19 19 17 23 25 23 22 24 25 25 24 19
2 1 5 10 6 4 2 3 3 3 3 6 5 1 1 1 1 1 1 1 1 1 2 1 3 3 2 2 1 2 3 3 4 9 5 2 3 3 1 1 2 4 5 5 3 5 6 7 2 3 8 9 5 9 9 2 5 4 3 6 11 13 15 12 7 9 12 19 25 24 21 17 14 14 18 21 22 20 21 24 21 19 24 26 23 23 20 16
4 0 5 8 7 2 3 1 1 3 4 1 1 0 1 0 1 0 0 1 0 1 1 0 0 1 1 3 4 3 1 3 5 4 1 2 0 0 2 1 1 1 3 1 0 3 1 2 7 5 9 7 12 12 15 11 2 0 2 1 7 14 15 16 9 12 14 16 19 19 18 15 19 21 23 25 24 21 20 25 21 27 27 26 25 20 15 19
Wind_Direction
330 334 334 337 341 342 341 343 341 340 338 339 333 328 326 327 329 335 333 335 331 324 329 327 326 325 336 349 358 353 32 90 37 29 48 226 222 256 303 306 314 312 1 47 11 38 351 10 7 337 27 59 314 67 274 51 46 56 79 120 275 210 160 211 200 190 210 295 288 329 222 210 302 329 265 32 309 274 281 260 272 289 258 243 251 129 98 112
329 331 333 338 342 340 341 340 337 334 333 329 328 323 324 326 329 330 331 329 328 322 324 321 315 317 328 343 360 2 67 63 66 46 33 263 282 312 314 324 325 309 301 38 56 62 54 346 332 21 45 53 315 63 17 318 61 95 127 106 236 187 239 158 208 231 306 276 265 268 256 202 255 346 300 357 284 359 327 274 200 254 267 271 268 230 99 132
330 331 334 339 339 337 337 333 329 327 329 327 324 322 323 324 324 325 323 329 326 325 319 318 316 313 322 336 338 3 330 20 39 14 307 341 343 333 332 333 2 38 83 79 188 119 94 238 270 44 7 128 7 205 46 338 35 213 123 262 248 215 256 229 218 262 198 262 300 311 307 174 249 148 309 242 296 313 270 279 304 230 262 264 254 248 191 165
329 331 333 336 335 333 328 325 323 325 324 324 321 322 320 321 323 323 322 324 324 320 322 323 319 320 325 329 346 19 71 61 32 281 269 327 344 343 340 351 94 79 75 70 152 113 126 78 56 72 32 67 314 16 60 326 56 281 85 193 239 208 341 279 186 241 255 181 274 275 301 315 282 223 81 228 351 290 271 238 228 258 260 269 276 254 199 195
326 327 331 331 329 325 322 321 321 322 323 321 322 319 319 317 323 321 324 319 319 320 324 317 322 326 328 338 349 98 76 55 292 249 263 341 351 354 353 61 95 59 89 142 80 49 73 79 81 37 69 321 5 12 18 334 91 126 212 196 189 170 266 260 244 249 229 207 247 288 331 285 303 102 234 187 231 260 259 287 190 239 261 273 287 298 196 206
322 324 328 327 322 319 319 319 321 321 322 319 318 318 317 316 315 321 321 322 323 324 321 330 331 332 338 7 50 59 97 68 295 299 336 342 0 357 18 70 88 94 92 45 93 24 53 352 64 25 5 54 346 64 295 189 5 272 310 273 222 208 238 277 310 259 184 288 290 306 263 330 40 297 249 186 214 250 256 10 316 270 266 266 294 287 237 221
320 324 323 322 320 318 318 321 319 319 316 315 315 317 313 316 313 317 321 325 324 327 326 335 343 338 328 2 51 72 82 234 330 266 2 342 357 357 44 46 26 52 68 55 13 55 37 45 77 98 90 49 332 142 252 309 350 137 247 343 323 152 228 295 296 318 291 250 259 203 350 313 318 318 40 268 255 250 297 308 289 285 286 287 284 270 253 241
322 321 320 319 318 319 318 315 317 315 313 315 319 316 315 317 318 316 321 325 327 319 326 337 337 335 323 48 47 5 40 324 275 292 346 346 355 347 296 84 34 67 55 74 314 59 105 44 62 138 59 95 213 143 333 321 21 139 288 256 263 191 258 304 300 302 307 273 288 349 324 274 229 231 4 275 277 310 294 301 310 312 305 306 270 270 265 260
318 320 317 316 317 315 314 314 312 314 316 318 319 316 317 319 319 319 318 323 320 319 316 332 327 334 100 82 101 63 354 245 218 313 357 351 343 359 17 11 18 73 137 88 1 120 100 291 71 181 275 176 189 153 335 41 328 169 226 344 293 295 326 316 328 350 344 302 41 349 277 282 269 226 252 264 293 301 301 319 320 319 322 316 291 265 260 257
316 316 315 315 315 316 312 313 316 316 318 318 314 312 306 315 320 325 310 306 308 311 316 330 332 55 53 73 40 67 276 254 307 325 353 359 345 10 34 99 34 74 54 348 20 40 73 209 143 186 121 89 151 135 233 62 289 150 270 237 291 304 337 341 354 323 322 245 315 324 303 293 283 50 293 320 253 335 333 323 319 329 319 314 312 301 275 260
314 315 315 316 316 317 319 319 319 319 316 311 305 302 304 316 321 319 323 314 312 306 311 336 348 80 43 70 83 66 240 10 11 348 3 18 350 4 330 322 334 70 95 15 53 242 162 162 163 102 77 239 134 322 55 242 127 21 264 302 351 341 168 338 4 356 354 6 27 350 290 319 312 107 235 290 319 348 332 324 330 336 331 327 325 326 316 289
314 316 319 321 322 321 321 321 320 312 301 296 299 303 312 316 314 309 312 316 314 304 325 15 41 100 77 70 70 52 221 247 336 349 26 18 329 278 233 234 38 132 112 74 325 275 199 157 110 66 39 236 334 113 31 85 65 339 38 21 314 355 43 9 355 330 354 332 348 283 308 41 343 202 271 293 326 341 339 333 349 356 354 353 351 350 359 338
318 321 323 323 323 322 320 315 308 305 298 302 309 317 316 309 296 292 294 314 293 318 357 36 49 79 90 32 288 247 311 293 352 357 354 360 323 49 20 50 52 137 129 127 29 286 145 129 107 77 213 84 181 49 198 61 331 180 41 57 358 6 19 357 339 348 16 327 348 357 2 304 302 266 275 313 347 349 3 4 359 360 1 4 6 11 11 8
322 324 324 322 319 316 311 305 305 306 310 310 312 314 307 297 287 285 283 263 315 168 96 53 78 64 80 237 268 251 277 45 17 8 351 333 22 316 7 32 43 33 19 103 93 121 79 81 88 117 116 58 352 332 39 337 11 30 293 62 52 7 313 318 14 322 27 317 5 43 325 295 303 315 336 346 13 12 2 349 352 354 358 2 5 15 18 13
320 320 319 316 315 314 313 310 311 313 309 307 308 306 307 302 291 288 287 293 127 143 150 77 42 73 53 275 259 288 279 47 17 348 351 10 4 342 342 3 9 4 79 112 124 71 93 57 59 36 350 326 12 46 6 23 6 355 45 330 336 61 296 322 21 34 34 320 12 38 318 246 296 293 320 355 359 23 2 337 347 353 3 3 11 16 16 12
314 315 313 314 315 314 311 312 313 309 301 306 308 306 306 316 324 321 21 133 54 122 123 58 358 99 107 31 291 18 43 21 340 317 321 36 20 326 299 273 297 27 37 30 71 79 47 73 69 147 343 332 44 65 31 29 346 5 66 291 317 349 292 334 359 93 20 278 337 60 259 319 308 312 331 339 2 13 0 343 345 349 351 2 8 7 9 16
309 310 312 315 315 311 310 310 309 303 303 307 312 303 298 343 344 57 80 71 22 356 54 356 125 90 74 251 339 20 319 289 293 340 336 53 36 285 345 39 12 8 16 83 34 52 359 62 283 22 45 80 312 39 62 20 338 327 35 12 247 336 332 321 315 36 11 63 317 29 219 242 260 298 308 321 27 0 357 336 332 334 338 349 357 14 17 22
306 310 313 314 311 308 306 304 307 309 306 308 296 307 339 339 8 35 359 22 345 74 61 93 114 45 330 8 19 312 324 298 339 294 255 302 64 27 53 38 348 29 39 11 4 42 338 42 22 118 20 27 28 27 73 328 245 289 336 355 331 288 201 252 316 302 5 353 311 322 246 276 294 306 307 298 359 12 333 317 303 315 345 356 9 15 16 22
305 308 311 311 307 309 311 308 311 314 310 301 153 135 64 35 35 54 40 350 41 352 26 334 20 75 180 301 293 286 306 259 262 12 345 7 332 91 59 96 61 50 4 54 333 47 350 49 36 45 14 355 4 64 114 219 180 238 235 243 242 321 319 315 275 299 41 329 329 4 317 313 311 312 309 317 356 343 315 317 319 337 359 7 11 9 12 17
303 306 309 312 314 315 312 314 314 315 334 9 12 18 15 18 6 343 350 25 65 89 162 253 178 258 305 346 335 291 253 11 35 353 3 16 360 0 35 46 12 60 57 58 312 24 39 67 50 2 294 305 284 215 232 247 199 255 141 170 270 266 281 258 266 275 326 329 266 315 308 287 288 284 285 294 334 344 343 346 332 341 357 1 5 8 4 11
303 309 314 318 321 313 314 314 314 323 16 98 77 62 67 174 66 60 302 1 189 82 56 239 174 181 262 283 309 358 16 329 71 6 5 291 88 57 339 23 14 49 6 249 160 312 66 61 8 292 264 261 276 286 265 92 127 191 198 252 301 252 295 298 294 6 337 51 292 19 334 306 287 287 288 309 351 312 320 332 325 335 351 349 359 358 359 337
311 319 326 324 320 314 312 314 321 335 70 82 70 106 146 200 154 164 116 47 7 296 42 294 284 2 325 212 257 156 106 304 356 4 350 28 341 82 318 74 61 61 314 2 8 16 38 52 308 299 273 107 67 40 46 161 126 59 266 278 330 304 241 290 302 10 355 39 264 323 347 296 308 299 302 287 263 262 267 239 284 333 344 351 1 4 2 6
324 328 329 324 318 314 314 313 327 3 38 33 63 88 112 270 346 261 97 114 81 267 41 20 19 6 346 278 341 94 43 37 304 348 348 7 3 61 41 46 28 18 14 25 93 25 38 331 331 344 19 137 75 32 29 43 69 58 347 18 336 286 16 326 269 1 325 128 272 313 311 294 314 301 286 288 295 305 323 336 330 18 5 5 10 17 18 21
331 332 327 321 315 309 312 309 330 41 27 125 92 96 183 37 347 112 56 92 141 341 41 248 126 126 18 11 340 59 58 332 61 341 350 38 47 277 70 87 60 50 21 25 75 94 131 231 120 68 35 53 45 351 38 26 353 311 179 326 309 332 277 188 293 326 309 33 359 308 330 321 349 12 338 324 2 17 4 15 24 24 30 26 32 32 30 31
330 326 319 311 311 308 302 352 39 334 193 46 52 220 50 21 76 103 94 5 20 352 165 66 116 46 316 296 0 48 296 122 75 229 285 54 342 35 43 153 93 11 201 155 60 61 351 284 225 27 23 31 53 14 33 24 353 329 234 222 257 273 297 277 288 322 6 342 358 31 358 309 291 330 279 301 4 22 25 33 26 26 27 26 29 24 24 28
326 322 312 309 311 315 292 35 324 194 53 74 164 65 24 64 60 105 92 75 34 290 359 13 156 348 164 336 4 189 59 54 264 329 47 355 189 111 26 20 56 15 23 131 95 138 143 341 68 53 56 15 44 65 255 88 335 47 323 177 269 290 278 306 315 28 3 354 304 50 104 283 325 339 327 337 30 25 27 36 30 29 24 25 23 19 20 18
313 308 312 312 330 326 45 266 210 114 22 344 8 1 354 18 202 98 26 1 34 318 12 264 44 339 59 330 325 60 43 304 313 2 18 7 30 315 89 327 20 58 110 189 41 25 18 344 20 35 39 26 18 12 295 123 57 333 235 77 317 333 313 304 129 123 229 277 294 33 96 277 308 313 3 346 64 37 27 23 23 23 24 20 17 16 15 13
299 302 310 340 0 34 158 133 39 47 189 288 338 8 345 135 59 37 77 63 332 328 10 319 37 328 61 313 22 73 156 291 41 337 49 293 55 353 83 43 116 22 324 80 78 270 74 346 29 345 28 25 19 294 299 134 201 262 298 353 314 286 256 158 125 183 224 28 308 332 337 360 257 271 7 22 30 24 27 13 8 10 16 17 13 12 8 6
298 296 316 326 24 57 68 107 112 76 252 288 65 12 34 83 82 110 121 102 262 62 199 111 256 40 338 1 35 21 336 8 75 305 325 347 29 180 47 311 151 137 270 71 133 292 329 142 239 132 56 2 287 299 204 165 15 282 299 339 82 89 70 112 97 75 326 52 303 286 348 345 284 339 345 1 65 16 354 358 352 359 8 9 9 3 3 360
273 281 276 320 4 17 1 39 48 238 94 54 47 67 43 56 33 31 15 4 9 302 33 278 53 305 18 19 330 3 27 343 133 309 12 71 327 29 67 130 124 65 3 5 78 212 249 299 173 77 92 264 303 289 195 183 237 301 356 326 353 47 45 20 63 86 53 19 272 231 288 120 287 349 327 25 10 297 294 295 323 353 3 8 6 4 359 356
261 317 320 14 86 207 68 21 307 353 149 63 82 48 66 38 102 103 84 230 44 281 19 29 342 19 30 38 350 338 28 343 341 28 348 352 6 34 18 22 27 50 21 12 22 358 7 337 54 288 15 320 95 326 32 251 265 5 10 344 333 349 3 37 347 38 59 296 267 244 191 296 268 258 114 54 264 248 253 351 359 2 4 360 359 358 354 354
70 65 53 72 163 23 86 205 258 120 56 101 63 58 67 335 11 78 173 328 42 306 67 300 360 42 18 315 59 340 332 329 360 28 35 17 27 36 360 82 340 20 0 12 332 360 47 27 283 332 228 59 314 6 324 26 355 22 8 12 36 315 18 337 16 356 244 255 283 155 258 356 234 202 167 174 213 259 291 2 358 356 355 357 355 355 351 348
107 93 75 59 63 36 32 244 63 154 91 53 70 49 54 93 60 267 291 323 313 10 311 126 271 359 299 17 355 335 263 41 317 54 118 348 95 52 49 70 275 182 20 321 327 17 290 300 356 327 12 284 62 30 328 359 353 10 29 22 44 2 16 318 285 220 290 273 252 172 295 249 171 137 175 170 187 220 10 354 333 356 354 353 353 354 349 350
37 44 66 6 79 83 325 84 204 157 59 39 69 34 51 62 215 166 298 275 286 360 30 12 324 341 52 71 327 350 19 265 29 337 39 357 48 28 335 5 29 3 67 357 46 331 15 347 329 16 355 10 59 96 262 227 352 294 200 68 136 118 244 300 266 317 294 284 308 287 359 236 294 167 169 158 173 132 334 316 331 354 351 339 348 352 346 351
85 70 98 25 42 33 11 323 99 114 83 65 50 80 95 209 222 190 282 311 307 308 35 290 323 32 337 12 328 327 118 305 39 26 15 43 14 28 2 336 340 90 255 65 292 74 311 229 264 224 251 20 350 273 117 81 83 254 165 110 48 308 134 204 218 227 289 324 324 321 229 200 44 112 160 176 119 316 17 351 340 354 4 349 354 357 347 346
48 346 65 30 25 340 358 338 39 69 92 65 78 47 75 178 22 109 50 199 302 354 310 343 67 41 311 314 309 36 307 47 315 80 9 66 214 67 276 232 357 359 14 97 237 25 1 337 295 328 63 113 175 296 324 90 22 297 47 358 271 193 147 296 326 251 352 30 257 191 308 13 349 246 266 261 257 349 353 0 4 359 357 358 355 353 343 338
25 335 42 334 5 342 339 17 50 80 70 90 91 68 192 13 175 197 303 13 290 194 34 90 335 60 342 321 288 340 309 41 341 62 356 95 18 33 5 302 205 346 142 133 329 183 73 274 318 33 334 328 202 154 286 16 142 66 20 295 236 126 132 128 248 315 348 243 276 14 288 289 27 291 295 355 1 1 358 355 354 355 357 357 348 345 340 331
69 60 131 45 332 325 343 344 76 49 76 79 62 116 266 67 270 215 208 38 347 346 71 75 328 78 287 41 330 348 318 79 328 41 247 344 92 146 80 344 342 80 338 296 114 297 106 355 295 261 247 275 351 65 351 315 7 136 233 228 32 328 337 324 74 320 328 293 281 288 280 277 258 267 2 2 354 355 353 351 358 355 349 342 336 332 331 327
62 84 26 335 338 1 309 66 64 61 66 65 4 86 290 204 270 171 240 159 107 98 73 321 132 347 131 76 258 285 322 38 321 40 62 342 59 125 89 193 324 190 345 175 57 237 31 171 295 283 298 302 342 52 340 303 334 18 355 357 349 143 214 344 249 219 129 273 354 286 339 286 91 227 331 350 335 349 347 347 351 341 330 330 326 328 326 329
23 40 354 299 340 358 331 77 64 47 58 91 182 109 210 99 251 271 359 200 306 78 23 95 238 346 3 235 135 342 323 102 26 288 66 301 90 29 58 1 301 315 8 6 118 284 259 106 261 277 308 10 1 350 326 312 333 330 19 336 357 323 211 186 293 154 271 263 230 295 301 290 167 199 148 218 315 342 337 335 336 337 328 319 323 323 323 318
46 99 264 332 350 325 18 47 42 35 83 208 90 134 12 181 296 307 331 4 235 317 165 176 156 92 242 37 348 230 298 22 323 339 127 314 76 341 43 52 302 321 321 25 54 349 58 360 236 315 351 19 263 228 209 86 358 351 33 15 290 12 352 26 301 37 40 11 291 306 282 290 75 167 189 246 320 336 345 341 333 331 328 325 321 316 311 313
79 48 296 332 350 50 78 54 18 88 92 66 65 99 92 54 60 333 352 341 89 150 26 105 54 121 142 220 217 277 312 316 244 43 250 81 344 68 348 3 327 277 41 20 354 274 137 169 76 302 258 274 266 314 42 79 79 92 78 359 44 109 94 5 286 292 321 251 249 247 289 295 139 194 240 248 320 338 344 340 334 330 329 323 321 323 325 322
46 124 265 335 350 77 69 57 339 38 65 186 262 13 3 32 136 244 53 335 24 150 17 57 177 44 219 215 270 266 187 284 171 341 222 254 263 286 304 323 321 292 110 355 5 310 66 64 351 272 282 288 292 355 89 90 132 76 41 37 48 31 163 179 215 295 287 310 319 319 263 285 260 271 265 269 320 336 343 338 331 329 329 331 332 332 326 324
133 79 349 344 30 102 78 116 95 47 78 308 60 23 310 168 72 2 18 333 84 353 85 7 330 124 7 117 133 3 208 8 222 37 6 139 354 127 16 344 317 10 41 94 90 314 31 299 98 322 342 333 337 353 69 206 79 86 81 62 70 83 344 246 87 58 323 233 354 314 289 301 330 341 323 316 334 340 339 336 333 330 331 325 324 323 318 314
103 324 42 320 10 52 99 177 126 135 159 122 78 27 347 15 129 143 170 360 10 144 85 356 191 297 32 39 331 245 303 85 290 16 43 204 246 109 53 25 312 68 26 339 314 310 41 257 86 40 356 337 332 334 330 331 341 116 114 47 8 57 20 29 3 340 286 307 316 291 280 280 308 319 317 323 336 334 335 333 330 326 318 318 318 314 312 311
36 94 315 6 17 41 65 44 92 124 125 132 45 293 94 39 27 316 150 29 150 111 99 234 5 85 33 29 4 5 337 4 73 288 37 330 311 356 315 332 31 83 352 337 357 9 132 296 133 146 256 255 247 260 283 340 338 317 321 60 353 15 18 73 250 244 310 304 288 264 274 309 313 321 322 328 340 338 336 330 324 323 319 316 314 312 310 309
125 75 23 36 337 48 69 26 31 42 126 158 98 256 12 347 261 338 161 7 62 173 17 58 318 43 334 50 4 314 248 326 11 96 334 240 265 258 284 259 33 42 340 315 358 84 73 5 260 179 232 232 257 279 286 4 299 296 20 350 323 43 106 90 46 325 303 296 279 306 314 311 313 317 320 335 338 336 326 320 319 317 313 312 309 304 306 304
72 235 104 202 118 337 28 1 37 78 25 73 129 75 64 358 16 54 321 131 249 359 155 352 44 69 200 90 359 6 338 345 31 339 337 188 325 335 54 29 75 328 319 328 2 106 134 247 277 114 260 254 277 277 285 320 252 174 57 348 6 347 18 11 322 305 306 292 295 307 311 309 311 313 329 338 334 324 320 315 311 306 303 302 304 307 306 305
112 135 132 327 87 268 154 182 70 92 66 68 121 75 57 79 56 215 158 317 20 356 42 41 344 6 358 275 79 34 360 25 326 294 106 326 12 339 357 357 216 353 67 32 358 163 92 258 235 195 274 284 277 268 286 217 202 127 23 1 335 4 7 321 311 306 297 291 291 299 307 307 312 326 338 329 322 325 318 310 309 314 313 312 311 308 306 304
185 124 92 17 84 108 355 33 57 50 62 2 86 342 139 168 359 313 12 110 358 342 11 57 316 342 9 138 135 53 275 204 234 293 263 50 327 97 237 191 291 329 31 86 325 287 55 297 34 345 336 309 290 97 10 271 183 158 71 339 357 345 344 348 330 318 309 291 304 311 312 311 326 340 321 317 323 316 308 313 315 311 311 311 309 307 306 305
142 117 147 119 57 336 12 21 42 69 68 347 71 239 88 227 62 161 342 197 103 302 16 312 318 341 85 80 106 238 250 205 230 226 235 184 264 226 125 303 114 316 3 5 22 324 49 302 67 67 349 313 328 359 341 26 86 105 359 6 356 354 350 342 338 333 324 321 319 319 316 315 322 321 318 318 315 317 312 312 312 311 310 308 306 304 304 311
77 39 76 106 88 318 48 323 348 57 28 249 142 271 123 309 210 43 36 142 215 217 172 90 221 52 330 13 343 342 274 201 233 256 258 210 218 90 60 144 112 45 326 48 237 40 18 18 346 356 344 299 329 346 333 331 108 18 325 47 357 355 333 323 336 340 327 323 321 321 313 318 319 331 324 320 322 319 319 317 317 315 311 308 306 306 312 323